User: anonymous   Login
Location: Napier
(39.4830°S, 176.9170°E)
Time: 12:23:42
(UTC+13:00)
Language:

USA 238 DEB - Orbit

View from above orbital plane
View from above orbital plane
View from above satellite
View from above satellite

Ground track
Ground track

The orbit data is extracted from the following two-line orbital elements,

1 38773U 12048P   19070.13958078 0.00000000  00000-0  00000-0 0    04
2 38773  63.4404 133.0619 0083001   2.9680 357.0320 13.40781624    07
Epoch (UTC): 11 March 2019 03:20:59
Eccentricity: 0.0083001
inclination: 63.4404°
perigee height: 1044 km
apogee height: 1168 km
right ascension of ascending node: 133.0619°
argument of perigee: 2.9680°
revolutions per day: 13.40781624
mean anomaly at epoch: 357.0320°
orbit number at epoch: 0

The dashed part of the orbit path shows where the satellite is in the earth's shadow,  

DLR